User: anonymous   Login
Location: Bodest
(46.3000°N, 22.5667°E)
Time: 20:23:56
(UTC+00:00)
Language:

Cosmos 489 Rocket - Orbit

View from above orbital plane
View from above orbital plane
View from above satellite
View from above satellite

Ground track
Ground track

The orbit data is extracted from the following two-line orbital elements,

1 06020U 72035B   22016.92435976 -.00000043  00000-0 -19455-4 0  9998
2 06020  74.0211 355.8936 0021723 310.8719 112.9225 13.78856086499745
Epoch (UTC): 16 January 2022 22:11:04
Eccentricity: 0.0021723
inclination: 74.0211°
perigee height: 952 km
apogee height: 984 km
right ascension of ascending node: 355.8936°
argument of perigee: 310.8719°
revolutions per day: 13.78856086
mean anomaly at epoch: 112.9225°
orbit number at epoch: 49974

The dashed part of the orbit path shows where the satellite is in the earth's shadow,  

DLR